Terminal Aerodrome Forecast
Issued by NWS Blacksburg, VA

Current Version | Previous Version | Text Only | Print | Product List | Glossary Off
Versions: 1 2 3 4 5 6 7 8 9 10 11 12 13 14 15 16 17 18 19 20 21 22 23 24 25 26 27 28 29 30 31 32 33 34 35 36 37 38 39 40 41 42 43 44 45 46 47 48 49 50

000
FTUS41 KRNK 060331 AAC
TAFBLF
TAF AMD
KBLF 060331Z 0604/0624 VRB03KT 1/2SM FG OVC003
      TEMPO 0604/0606 2SM -SHRA BR OVC006
     FM061500 00000KT 4SM BR OVC012
     FM061900 27007KT P6SM VCSH OVC050=

USA.gov is the U.S. government's official web portal to all federal, state and local government web resources and services.